Wind_Speed
63 62 63 64 65 65 65 65 65 65 65 65 66 66 66 66 66 66 66 67 68 69 70 72 73 73 73 74 75 75 74 75 77 77 77 76 77 75 72 69 69 67 66 67 64 62 62 63 64 65 65 60 56 57 60 59 56 55 53 47 41 37 36 36 36 37 37 36 34 32 31 30 30 29 28 26 25 24 22 21 20 18 18 18 18
65 64 65 66 66 66 66 66 66 67 67 67 67 67 67 67 67 67 67 68 69 70 72 74 74 74 73 75 75 74 73 75 77 77 78 77 74 70 66 66 67 67 69 67 64 64 64 65 66 66 62 57 56 57 57 56 55 54 49 44 39 36 35 35 36 36 35 33 32 30 29 29 28 27 26 24 22 21 20 19 17 16 16 17 18
66 67 68 68 68 68 68 68 68 69 69 69 68 68 68 68 69 68 68 69 71 72 73 75 74 74 74 76 75 73 74 77 78 78 77 74 69 64 63 66 70 71 71 67 66 67 68 68 67 63 58 55 55 55 54 53 54 51 46 41 36 34 34 34 35 34 33 31 30 29 29 28 27 25 23 21 19 18 18 16 15 16 16 17 17
68 69 69 69 70 70 69 69 70 71 71 70 69 69 70 70 70 70 70 71 72 73 74 74 74 75 75 74 73 73 77 79 77 75 73 69 64 61 63 70 73 72 69 66 68 70 72 70 64 58 55 54 54 52 52 53 52 47 43 38 34 32 32 33 33 32 31 30 29 28 28 27 25 22 21 19 17 16 16 15 15 16 16 16 15
69 70 71 71 71 71 70 71 73 73 72 71 70 70 70 71 71 71 72 73 73 74 75 74 75 76 75 73 74 77 79 77 74 71 70 65 60 60 67 73 73 69 66 67 71 73 72 66 59 55 54 53 52 51 52 52 50 44 40 36 33 32 31 31 31 31 30 29 27 27 27 25 22 20 18 17 16 15 15 14 15 16 15 15 14
72 73 73 73 72 71 71 73 74 73 71 71 71 71 70 70 71 73 75 75 75 75 75 75 76 76 76 75 77 80 78 73 70 69 68 63 60 64 71 75 72 68 67 70 73 73 67 59 54 53 53 52 52 51 51 52 48 41 38 35 34 33 30 29 29 29 28 27 26 26 25 22 19 18 16 15 15 14 15 15 16 16 14 14 13
75 75 75 74 73 73 74 75 74 73 72 73 73 72 71 71 73 76 76 76 76 76 75 76 76 77 77 78 80 78 72 68 68 69 67 64 66 71 75 75 71 68 69 70 71 68 60 55 53 53 54 53 51 50 50 51 45 39 37 34 33 30 27 26 27 27 27 26 25 24 22 19 17 16 15 14 14 15 16 16 16 14 14 13 13
77 76 76 75 75 76 77 77 76 75 75 75 74 73 72 74 77 78 77 77 76 75 75 75 76 76 78 79 78 73 67 68 70 70 69 69 72 75 76 72 68 68 68 68 68 62 57 54 54 55 55 52 50 49 50 50 43 38 36 32 30 26 24 24 25 26 25 24 23 22 19 17 16 15 14 14 15 16 17 16 14 14 13 12 12
78 77 77 77 78 78 78 77 76 75 75 75 74 74 75 77 78 77 77 76 75 74 73 74 76 77 78 76 72 68 69 73 74 73 71 69 69 72 72 69 67 67 66 67 64 60 57 56 57 56 54 50 49 49 50 48 40 36 35 30 27 25 23 23 24 25 24 23 21 18 16 15 15 14 14 15 16 16 15 14 14 13 13 13 12
79 78 78 79 78 77 77 75 73 73 74 74 75 76 77 78 79 78 77 76 75 74 75 77 78 77 74 70 67 69 75 76 74 71 67 65 68 71 71 67 67 67 67 67 63 61 60 59 59 56 52 49 49 49 49 45 37 35 33 29 27 25 22 22 23 23 21 18 16 14 14 14 14 15 15 15 15 14 13 13 13 14 13 13 12
80 80 81 81 80 79 76 72 71 73 74 75 77 78 79 79 79 78 77 77 77 76 78 78 76 73 69 67 70 74 76 71 66 65 66 69 74 74 71 67 68 68 68 68 64 63 62 61 58 53 50 48 49 49 46 40 34 33 32 29 28 24 21 22 22 21 18 15 14 14 14 15 15 15 15 14 14 13 13 12 13 14 14 13 13
81 80 82 82 81 78 74 73 75 76 77 79 80 80 79 79 79 78 79 79 79 78 77 74 71 69 69 71 74 75 71 65 67 72 75 77 77 75 71 69 69 69 69 67 63 62 61 59 55 50 48 48 48 45 41 36 32 32 31 29 27 23 21 21 20 18 16 16 16 15 15 15 15 15 15 15 15 14 13 13 13 14 13 14 14
81 80 79 76 74 75 75 77 79 79 80 80 79 78 79 79 79 80 80 79 78 75 72 69 69 70 74 76 76 76 73 73 77 80 79 77 75 72 70 70 70 69 68 63 60 59 59 55 51 47 46 45 44 41 38 34 31 32 30 28 26 22 21 21 21 19 18 18 18 18 17 15 15 16 17 17 18 17 16 16 15 15 15 14 15
82 79 76 74 75 77 77 78 80 80 78 75 75 76 78 78 77 76 76 75 73 70 69 70 72 76 79 80 81 80 79 80 81 79 77 73 70 69 69 70 70 67 63 59 57 57 55 51 47 45 43 41 40 38 37 34 32 33 30 28 25 22 21 22 22 23 22 22 22 21 20 18 17 17 19 20 21 21 20 19 19 18 17 16 15
81 79 80 81 83 83 81 81 79 76 74 72 74 75 76 74 74 75 75 74 73 72 74 76 79 82 83 82 81 79 79 79 79 76 72 69 68 68 69 69 67 63 59 56 55 54 51 47 45 42 39 38 38 37 36 33 33 33 30 27 25 22 21 21 20 22 23 24 24 23 23 21 20 19 20 21 23 23 23 23 22 21 19 17 16
81 82 84 86 84 82 82 81 76 75 75 76 77 78 77 76 78 80 79 78 78 80 82 83 83 83 81 79 77 77 77 77 75 72 67 66 67 68 67 64 62 59 56 53 51 49 46 43 42 39 36 37 37 36 35 32 33 34 30 26 25 24 23 22 20 20 22 24 24 24 25 24 23 21 21 23 24 26 26 26 25 23 21 18 17
82 83 83 84 83 80 78 76 76 78 79 79 79 78 78 79 81 81 81 81 82 82 82 81 79 77 76 76 76 75 73 72 69 66 65 65 65 64 62 59 56 54 51 49 46 44 42 41 39 36 35 36 36 36 34 32 33 34 29 25 26 25 26 26 24 23 24 25 25 25 25 25 24 23 23 24 26 27 28 28 27 25 23 20 19
81 82 82 82 82 80 79 79 81 81 79 79 78 77 78 80 81 81 82 82 81 80 79 77 76 75 75 74 72 70 67 65 64 64 64 63 61 59 56 54 51 48 46 44 42 40 39 38 35 34 35 36 36 35 33 32 33 32 27 26 26 27 29 29 27 26 27 28 28 28 27 26 25 24 24 24 26 28 29 28 27 26 24 22 21
81 82 82 82 82 82 82 83 83 81 79 79 78 79 80 80 79 80 80 79 79 78 77 75 74 73 71 69 66 63 62 61 62 62 61 58 56 54 51 48 46 44 42 40 38 37 36 34 33 34 34 34 35 33 31 32 32 29 26 25 26 28 31 30 27 25 25 27 29 29 29 28 27 25 25 24 26 28 28 28 27 26 25 24 23
81 81 81 81 80 80 81 81 81 80 78 78 79 79 79 78 76 76 76 76 75 74 73 71 70 68 67 64 61 61 61 60 60 58 57 55 51 47 44 43 41 40 37 35 35 34 33 32 34 35 34 34 33 32 31 31 30 26 23 24 27 29 30 28 25 24 23 25 26 27 29 29 28 26 24 24 25 26 28 28 28 27 26 25 24
79 80 79 78 77 78 78 78 78 77 77 76 75 74 73 73 72 72 72 72 71 70 69 68 67 66 65 62 61 62 61 58 57 56 54 50 45 41 40 39 37 34 32 33 33 31 30 32 35 35 34 34 32 31 31 30 29 25 23 26 28 28 29 27 25 25 24 24 25 25 26 28 28 26 23 22 23 25 26 27 27 27 26 25 25
77 76 73 71 71 72 72 72 72 72 71 71 71 70 70 70 70 70 70 70 69 69 68 68 67 65 64 63 64 63 60 59 57 55 51 46 42 39 38 34 30 29 31 32 30 28 30 34 36 35 34 34 31 31 31 30 29 27 26 27 26 28 28 26 25 26 26 26 26 26 26 26 26 25 22 22 23 25 26 26 26 26 26 26 26
74 72 69 68 68 69 69 68 68 68 70 70 70 69 68 69 70 69 69 69 69 68 68 68 66 64 63 64 64 62 59 59 56 53 48 42 39 35 31 28 28 29 30 28 26 28 32 35 37 36 35 34 31 30 30 30 29 28 27 25 25 27 28 27 26 27 28 28 27 27 26 26 25 25 24 24 25 26 27 28 28 27 26 27 28
71 71 72 72 71 70 70 70 70 71 70 68 67 67 68 68 68 68 68 67 67 67 66 65 63 62 63 63 62 60 58 56 53 48 42 34 31 29 26 27 28 28 26 26 27 29 33 36 36 36 35 33 31 29 29 29 30 30 25 23 24 26 28 28 26 25 27 27 28 28 27 26 25 26 26 26 26 27 27 27 28 27 27 28 29
72 74 74 74 73 73 72 72 71 68 65 64 65 66 66 65 65 65 65 65 64 64 62 60 59 59 60 60 60 58 55 52 48 43 37 32 32 32 31 31 30 27 26 28 30 31 33 36 36 35 33 31 31 30 27 28 31 29 24 22 23 26 28 25 23 23 25 27 28 29 28 27 26 26 27 28 28 27 27 26 27 28 30 31 31
74 73 72 71 71 69 68 67 64 63 62 63 64 63 63 64 64 64 63 62 61 59 58 56 55 55 56 56 55 52 49 46 44 41 38 37 38 38 37 34 32 31 31 31 31 33 35 36 36 35 32 31 33 30 27 29 31 28 23 21 23 25 26 22 21 23 25 27 28 28 28 27 27 26 26 28 29 30 30 29 29 30 31 32 33
73 72 72 70 68 65 61 60 61 61 62 62 62 61 61 60 57 54 52 51 50 49 49 48 48 47 46 45 43 41 40 39 38 36 35 35 36 37 36 35 36 36 36 35 33 34 36 36 36 35 33 31 30 27 27 29 29 27 23 22 23 25 24 20 20 23 27 30 30 29 27 27 27 26 26 27 29 31 33 34 34 34 33 33 33
72 72 70 67 65 63 60 61 62 63 61 59 56 53 49 45 39 35 36 39 39 41 42 41 41 39 37 35 35 35 35 34 31 30 30 30 31 32 35 37 38 39 40 38 36 36 35 34 35 33 30 27 26 25 27 29 30 29 25 23 24 24 23 23 23 26 30 33 34 31 28 26 25 24 25 26 27 29 31 34 36 37 37 37 36
67 66 64 62 62 63 63 63 63 61 54 45 39 37 30 27 28 32 35 37 38 39 39 40 39 37 35 34 33 32 31 30 28 28 29 31 32 33 36 37 39 41 40 35 34 35 34 34 33 29 25 24 24 24 27 31 32 31 28 24 24 26 25 25 26 28 29 33 34 31 29 27 24 22 22 23 24 26 27 29 32 34 36 37 38
62 62 62 62 62 63 63 62 58 52 42 33 32 32 29 28 32 36 37 37 38 37 37 40 39 36 35 33 30 29 30 31 31 32 33 34 35 34 36 37 39 41 39 35 32 32 33 31 28 26 25 25 25 26 31 36 34 31 29 25 27 29 28 26 26 27 29 32 33 31 30 28 25 23 22 23 24 25 25 26 26 28 30 32 35
60 61 63 63 61 61 61 57 47 39 38 37 37 35 34 35 36 36 36 35 37 37 37 39 38 35 35 35 35 34 35 37 37 37 38 37 36 36 37 39 40 40 38 33 29 31 32 28 26 26 25 24 25 28 34 36 34 31 28 26 31 32 29 26 25 27 29 32 32 31 32 30 28 27 26 26 26 26 25 24 23 23 24 25 28
52 55 59 60 60 58 55 49 41 39 43 42 42 42 40 38 38 39 40 39 39 38 37 36 35 35 38 41 41 40 38 37 38 38 39 40 40 41 42 42 40 36 32 27 27 32 31 26 25 25 23 22 26 31 35 36 33 29 27 29 33 32 29 27 25 26 30 32 31 31 32 30 30 30 29 28 27 27 25 23 22 22 22 22 24
47 49 52 53 54 53 50 48 46 46 44 40 43 47 44 43 43 44 43 42 38 36 36 34 34 37 40 41 39 37 37 36 37 38 41 42 43 44 45 43 36 30 27 25 28 29 26 24 24 25 25 27 31 36 37 34 32 29 29 31 32 30 28 27 26 27 32 32 30 31 32 30 30 30 27 25 24 23 23 22 23 23 22 21 22
46 48 49 50 52 53 52 52 50 46 43 42 46 47 46 47 48 46 45 43 38 37 39 40 41 41 42 40 35 35 38 38 40 42 43 44 44 43 41 39 33 30 27 24 24 24 24 26 28 29 30 33 37 38 35 31 32 31 30 32 30 28 28 28 27 29 32 31 28 29 29 29 28 27 24 22 22 21 21 21 23 24 24 23 22
43 45 46 48 50 52 52 52 50 47 47 49 51 52 51 51 50 48 46 44 42 43 45 46 46 43 42 40 37 38 40 41 41 42 42 40 39 38 37 35 31 30 29 26 24 23 25 28 31 32 33 35 38 38 33 29 29 29 30 32 30 29 29 28 28 31 33 29 26 25 26 26 26 25 24 24 24 24 23 22 23 23 23 23 22
43 45 41 42 45 47 49 48 48 47 46 47 49 52 53 54 54 53 50 47 47 49 50 50 50 48 47 45 43 41 40 40 40 38 37 35 36 36 35 33 28 28 30 31 30 25 24 27 29 32 32 33 34 34 29 23 24 29 30 31 30 29 29 28 30 33 33 27 22 23 26 27 26 25 25 25 25 25 25 25 25 24 23 23 23
48 51 46 44 47 48 48 46 44 43 43 43 45 48 50 54 56 57 56 55 56 57 56 56 56 54 52 50 48 44 41 42 42 39 36 35 36 36 36 32 27 28 31 32 30 25 24 26 28 31 31 31 30 28 26 24 27 32 32 30 29 29 29 30 32 34 31 24 21 23 26 28 28 28 28 26 26 27 27 27 27 28 27 25 25
54 56 55 54 54 52 48 47 44 43 43 44 46 48 50 52 54 55 58 60 63 62 59 59 60 57 53 52 51 49 47 46 44 40 38 37 37 37 37 35 30 30 32 31 31 29 31 32 33 35 34 32 30 29 31 31 32 32 32 31 31 30 31 32 34 33 29 25 24 26 27 28 29 29 30 29 30 30 30 29 29 30 30 28 26
57 58 59 60 58 54 50 48 44 42 42 42 43 45 47 49 50 52 55 58 60 59 57 57 58 57 53 52 51 51 50 48 46 43 41 39 39 38 37 36 34 34 36 38 39 40 41 41 39 37 35 35 33 32 35 35 34 33 33 33 32 31 31 34 35 32 30 28 28 29 28 28 28 29 31 31 31 31 30 30 29 30 30 29 28
61 63 63 61 58 55 51 48 46 46 46 44 43 42 43 44 46 47 48 51 52 53 53 53 55 56 55 54 52 51 51 50 48 45 43 40 41 40 36 35 36 36 39 41 44 46 47 47 45 42 38 38 38 36 38 38 37 37 35 34 32 31 33 36 36 32 31 31 31 31 29 29 30 31 32 31 30 29 29 29 29 31 31 31 31
60 61 59 56 55 53 51 49 49 50 49 48 47 45 43 42 43 44 45 46 48 48 49 50 51 53 54 54 52 51 50 49 47 44 41 40 40 39 35 35 38 39 40 42 45 47 49 50 50 50 45 41 41 39 40 41 39 38 37 35 33 34 36 38 35 32 31 33 33 32 30 30 32 33 33 33 32 31 32 31 31 32 33 33 33
55 54 52 49 49 49 49 49 48 48 46 45 45 45 44 42 41 42 43 43 44 45 46 47 47 48 49 50 49 48 47 46 45 43 42 41 43 41 39 40 41 41 41 42 44 47 50 52 52 52 47 42 41 41 42 43 41 40 39 38 37 37 40 39 36 33 32 34 35 33 32 33 35 35 34 34 34 34 35 35 34 33 33 33 33
56 55 51 47 47 47 47 48 48 47 45 42 42 42 43 43 42 42 43 43 42 42 42 43 44 44 44 44 44 45 45 46 45 44 44 44 46 46 45 47 45 43 42 41 42 44 47 48 47 45 40 38 40 41 41 42 42 41 40 38 39 40 41 39 37 35 35 36 36 34 33 36 37 36 36 37 36 35 35 36 35 35 33 31 31
58 58 55 51 49 48 47 47 48 48 45 42 40 40 42 44 44 44 45 46 44 41 40 39 40 40 40 40 41 42 43 44 45 45 46 46 47 48 48 50 49 48 47 45 43 43 43 41 38 36 35 36 38 40 40 40 40 40 39 39 40 42 41 40 39 38 38 38 36 35 35 38 39 38 39 39 38 36 36 36 36 35 34 32 31
57 58 56 53 50 51 51 50 49 48 46 42 40 41 42 44 44 43 44 45 45 44 43 42 40 39 39 39 39 39 40 41 42 43 44 45 46 47 47 48 49 49 48 47 45 42 39 36 34 33 35 36 37 38 39 39 39 40 41 42 42 43 43 42 42 43 41 38 36 36 37 39 40 40 41 41 39 37 37 37 36 36 34 33 32
55 55 55 53 53 54 55 55 53 50 47 44 43 42 43 44 45 45 44 45 45 44 44 43 40 38 38 39 38 37 38 40 41 41 41 41 43 44 45 45 44 44 43 43 43 40 35 33 33 34 36 37 36 36 37 37 39 41 42 43 44 44 44 44 45 45 42 38 37 37 39 40 41 42 42 42 40 39 38 37 36 35 34 33 33
53 53 52 51 51 52 53 54 52 50 48 47 47 46 44 44 44 44 45 45 44 43 43 42 41 40 39 39 38 38 38 40 40 40 38 37 36 37 38 38 37 37 38 40 41 37 32 32 33 35 37 37 36 36 37 38 40 42 43 44 44 44 45 45 45 43 41 39 39 39 40 40 41 42 44 44 42 41 40 38 36 35 35 35 34
51 51 51 50 50 52 53 52 51 50 49 49 50 49 46 45 44 43 43 43 44 43 43 43 42 42 41 40 39 39 39 40 40 39 36 34 32 32 33 34 35 34 34 37 38 35 33 33 34 36 37 37 36 38 40 40 40 41 42 44 45 45 45 45 44 43 42 41 41 41 41 42 42 43 44 45 44 42 40 38 36 35 35 35 35
50 49 49 49 50 51 52 52 51 50 49 49 50 50 49 49 48 46 43 42 43 43 43 41 41 41 41 41 41 41 41 41 40 38 36 34 33 32 33 34 34 32 32 33 35 34 33 32 33 34 36 38 39 40 40 40 39 39 41 42 44 45 45 45 45 45 43 43 43 43 43 43 43 44 45 45 44 42 40 38 36 35 35 35 35
47 46 47 48 48 50 51 51 50 49 48 47 47 48 48 48 47 47 44 42 42 43 42 39 38 39 41 42 43 43 43 42 41 38 37 37 37 36 35 34 33 32 31 30 32 33 34 34 34 35 38 40 40 40 39 38 38 39 41 43 44 44 44 44 46 46 46 45 46 45 44 43 43 45 46 46 44 42 41 38 35 35 34 34 34
45 44 45 46 46 47 49 48 48 47 46 44 44 45 46 46 46 45 44 42 42 42 42 39 39 40 42 43 43 42 42 42 41 40 41 41 40 38 36 34 32 31 30 29 29 30 32 34 35 36 38 39 39 39 39 38 38 40 42 44 43 42 41 43 46 46 46 46 45 45 44 44 45 47 47 45 43 42 40 37 35 34 34 34 34
Wind_Direction
283 283 283 284 285 285 286 288 289 290 290 291 291 293 295 296 298 298 298 299 301 302 303 304 305 306 306 307 307 307 307 308 310 311 311 310 310 311 311 310 311 312 314 315 317 318 318 318 319 320 320 319 319 320 321 322 323 323 323 320 316 314 313 313 314 313 312 312 311 309 308 307 304 301 297 293 290 289 288 286 284 282 279 277 277
281 281 281 282 283 283 284 286 288 289 289 291 292 293 294 295 297 297 297 299 301 301 302 304 304 305 305 306 306 306 306 308 309 310 310 310 310 310 310 311 312 312 313 314 315 318 319 319 319 319 319 319 319 321 322 324 325 325 324 321 317 315 313 313 312 311 311 311 309 307 307 307 304 300 295 291 290 289 287 284 281 278 277 278 278
280 281 281 282 282 283 285 287 288 289 290 292 293 293 294 294 296 296 297 299 300 301 302 303 303 304 304 305 304 304 305 308 309 309 310 310 310 309 310 311 311 311 312 312 315 318 319 319 319 319 319 318 320 322 324 325 326 326 325 323 319 316 314 313 311 311 311 309 307 305 306 307 304 298 293 290 288 287 284 280 276 276 277 278 278
280 280 280 281 282 285 287 289 290 291 292 292 293 293 293 294 295 295 297 299 300 301 301 301 301 302 303 303 303 303 306 308 308 309 310 310 308 308 310 311 311 311 311 312 316 318 318 318 318 319 318 319 321 323 324 326 327 326 325 324 321 318 315 313 312 311 310 307 305 304 305 306 303 296 291 288 286 283 278 274 273 276 278 278 277
279 279 280 281 283 286 288 290 291 291 291 292 293 292 293 293 294 295 297 299 299 300 300 300 300 301 302 302 302 304 306 307 308 310 310 308 306 307 310 311 311 310 311 313 317 318 317 317 317 318 319 320 321 322 324 326 326 326 326 324 322 318 315 314 313 311 309 307 305 304 304 304 300 293 288 285 282 277 272 271 274 276 276 276 275
278 279 280 282 284 286 288 291 291 291 291 292 292 292 292 292 293 295 297 298 298 299 298 299 299 300 301 301 302 305 306 307 308 310 309 306 304 306 309 309 309 309 312 315 317 317 317 316 317 319 319 319 320 322 324 326 326 327 328 324 321 318 316 317 315 312 309 308 306 304 304 303 298 290 285 282 278 272 270 272 274 274 274 274 274
279 280 281 283 284 285 288 290 290 290 290 291 291 291 291 291 293 296 296 296 297 297 297 298 299 299 300 301 303 305 306 306 308 308 306 304 304 305 306 307 307 309 313 316 317 316 315 316 318 318 318 318 320 321 323 325 326 327 329 325 320 319 320 319 316 313 310 308 306 305 303 300 294 286 281 277 272 270 273 275 273 270 272 274 272
279 280 282 283 284 285 287 288 288 288 288 289 289 289 290 291 293 294 295 296 296 296 296 297 298 299 300 302 304 305 304 305 306 305 304 303 304 305 304 305 306 310 315 317 316 314 314 316 317 317 317 317 318 320 321 325 324 325 329 325 322 323 323 320 315 313 310 308 306 305 303 299 292 284 279 274 272 273 275 273 269 267 271 273 273
279 280 282 283 284 285 286 287 287 286 286 286 286 287 289 290 292 293 294 295 295 295 296 297 297 298 300 302 303 302 302 303 303 302 302 303 306 306 304 304 308 313 315 315 313 312 313 314 315 315 315 315 317 318 320 324 323 324 328 325 325 327 325 318 314 312 309 308 307 307 305 301 293 284 278 275 275 274 272 268 266 268 271 274 275
279 280 282 283 283 284 285 286 285 284 284 285 285 287 288 289 291 292 293 293 294 294 295 296 297 298 300 301 301 300 302 302 301 300 301 303 307 307 305 304 310 313 313 312 310 310 312 312 314 314 314 315 316 317 320 323 321 324 326 324 327 328 322 316 313 310 308 309 311 315 314 307 296 286 280 276 273 270 268 267 270 272 275 278 278
278 280 282 282 282 283 284 283 283 283 283 285 286 287 288 289 290 290 291 292 293 294 295 296 296 297 299 299 299 301 302 301 300 300 300 302 304 306 303 303 308 310 310 309 307 308 310 311 312 312 313 314 316 318 322 323 319 323 325 324 328 326 318 313 312 308 305 307 312 318 317 310 299 288 281 274 270 268 269 273 278 280 282 284 283
279 282 282 281 281 280 280 280 282 282 283 286 287 286 287 288 289 289 291 292 293 294 295 295 295 295 296 298 299 300 300 299 299 300 301 301 302 303 302 301 305 307 308 307 305 307 309 310 310 311 312 314 317 320 324 322 319 325 325 324 328 322 311 308 309 305 300 301 307 312 311 308 299 289 281 274 270 270 271 276 282 287 291 290 288
280 282 282 280 280 280 279 280 282 282 284 286 286 286 287 288 289 290 292 293 294 294 294 293 292 293 295 296 298 298 296 296 298 299 300 300 299 300 300 300 303 305 306 305 305 307 309 309 309 311 313 316 319 321 323 319 320 327 326 323 325 316 302 297 298 298 298 299 302 306 307 304 298 291 285 278 275 272 271 274 280 286 293 294 291
279 279 279 278 281 283 281 282 283 283 284 284 285 287 288 289 290 291 292 292 293 292 292 291 291 293 295 295 296 296 295 295 297 299 299 299 297 297 298 300 302 304 304 304 305 307 308 308 309 312 315 317 320 320 320 317 318 327 326 322 322 313 299 292 289 290 292 295 297 299 301 301 296 290 285 281 278 276 273 273 276 281 287 291 290
277 276 276 278 282 283 282 283 284 283 282 281 283 285 286 287 288 289 289 289 289 289 290 291 292 293 294 294 295 296 295 295 297 298 298 298 297 297 298 300 301 301 302 303 305 306 307 308 311 314 316 318 319 318 317 315 316 326 326 319 319 313 302 296 292 290 289 290 291 293 296 296 295 290 284 280 277 276 275 275 276 279 283 287 288
275 276 277 278 280 281 281 281 281 282 282 282 283 284 283 284 285 286 286 286 287 288 289 290 292 293 293 294 295 295 295 295 295 296 296 297 297 298 299 299 300 300 301 303 303 305 307 310 313 315 316 317 317 316 316 316 318 325 324 317 316 312 302 297 296 294 291 289 289 291 293 293 292 289 282 277 275 273 273 274 275 278 281 284 285
276 277 277 277 278 279 280 279 280 282 282 282 284 283 283 283 284 285 285 286 287 288 289 290 291 293 293 294 294 294 294 294 294 294 295 297 297 298 299 300 300 300 301 301 303 306 310 312 313 315 316 316 316 315 314 317 322 325 321 316 315 310 300 296 297 294 289 288 288 288 289 289 288 286 280 274 271 270 270 271 272 275 278 281 282
276 276 276 277 277 277 277 278 280 282 282 282 283 283 284 286 285 285 286 287 289 290 290 290 291 293 293 294 293 293 293 293 293 294 295 297 297 298 299 300 300 299 299 301 304 309 312 312 313 314 315 315 315 313 313 318 324 325 320 316 314 308 299 296 298 295 288 284 283 283 283 282 282 281 278 271 267 266 266 267 270 273 276 279 280
274 275 276 277 277 277 277 278 279 280 281 282 282 283 285 286 287 287 288 289 290 291 290 291 291 293 293 293 292 293 293 293 293 294 296 297 298 299 299 298 296 296 299 303 307 311 311 311 312 313 314 314 313 312 315 321 325 323 318 316 314 307 300 301 305 304 296 286 281 279 278 277 276 276 274 269 264 262 264 265 268 272 274 277 279
274 275 276 277 278 277 278 278 278 279 281 282 283 284 285 286 288 289 290 290 291 291 291 291 292 292 292 291 292 294 294 294 294 295 296 298 299 299 296 293 293 298 303 306 309 309 309 310 311 312 312 311 310 311 316 323 326 321 316 317 316 308 304 308 315 316 309 296 289 283 277 274 272 272 270 265 262 261 263 266 270 273 276 277 275
274 275 276 277 277 277 278 278 279 280 281 282 284 285 286 286 288 290 290 290 291 292 292 291 291 291 291 290 292 293 293 294 295 297 298 299 300 297 294 294 297 302 303 305 306 306 306 309 311 312 311 308 308 311 314 322 326 320 315 318 318 309 306 314 321 320 313 304 299 292 283 277 271 268 264 259 258 261 263 266 272 275 277 278 274
274 275 276 276 277 278 278 280 280 281 282 283 285 286 287 288 289 290 290 291 291 291 291 291 290 290 290 290 292 292 292 294 295 297 298 298 297 297 299 301 302 300 300 302 301 302 307 308 308 309 309 305 307 310 313 320 325 321 316 318 318 308 307 315 319 316 313 308 303 299 293 284 274 266 258 251 252 256 259 262 267 273 275 276 275
273 274 275 277 278 278 279 281 282 282 283 285 286 287 288 290 291 291 291 291 291 291 290 289 289 289 289 290 290 290 291 293 294 295 296 297 298 301 303 300 294 292 297 296 293 300 306 305 305 306 307 304 304 307 312 318 323 322 317 318 316 306 308 317 318 315 313 307 302 301 297 289 279 267 257 251 249 251 255 257 260 265 271 274 273
272 273 275 276 277 277 279 281 282 283 285 285 287 289 291 291 291 291 291 291 291 291 289 288 288 288 288 288 288 288 290 291 292 292 293 293 296 298 292 284 283 288 291 287 288 298 302 303 303 303 304 300 300 305 312 317 321 321 315 315 313 306 312 320 323 322 315 308 304 301 296 290 282 270 261 255 252 252 255 257 259 263 268 271 271
273 274 275 276 277 278 280 281 282 283 284 286 289 291 291 291 291 291 291 291 290 289 288 288 288 288 287 286 286 287 288 288 288 288 286 281 280 278 275 275 277 280 281 280 285 292 297 300 300 299 298 295 297 303 310 315 319 318 310 309 310 308 315 324 331 331 324 318 314 308 300 293 284 275 268 264 260 259 260 261 262 264 266 267 267
274 274 275 277 278 280 280 279 279 282 285 288 289 290 291 292 292 292 290 289 287 285 285 287 287 286 286 286 285 285 285 285 285 283 280 276 271 267 268 272 275 277 277 279 286 293 294 295 297 296 292 291 295 300 307 312 316 316 306 304 307 308 314 324 336 336 333 330 325 317 308 298 287 278 274 270 266 263 263 263 264 264 264 264 263
275 275 276 277 278 278 277 276 279 283 286 288 289 291 293 294 294 291 288 286 284 284 285 286 287 287 286 285 283 282 283 284 283 280 277 276 270 265 266 268 272 275 276 278 286 294 295 292 292 292 287 287 292 300 308 310 315 314 303 300 304 306 309 313 324 330 333 334 330 322 312 303 291 281 276 272 268 265 263 263 264 264 263 263 262
276 276 276 275 275 274 274 276 280 284 287 290 291 293 293 291 289 285 282 282 283 284 284 285 287 286 285 282 280 281 281 281 280 278 276 276 272 270 270 269 270 273 275 280 287 293 293 288 285 285 281 282 293 303 309 309 312 312 301 296 301 303 302 301 306 314 325 331 330 324 314 304 293 285 279 275 271 269 267 265 265 266 265 263 261
278 276 274 272 272 273 274 277 280 284 287 289 289 288 282 272 271 272 273 278 282 282 281 281 280 278 278 278 278 277 277 277 278 278 276 276 276 276 276 274 273 272 274 283 293 290 286 285 280 275 276 283 296 303 305 306 310 309 297 292 300 301 298 297 300 305 316 325 326 323 316 304 294 290 284 278 277 275 274 272 270 269 268 266 263
277 274 272 273 273 275 275 277 280 283 282 276 273 273 264 259 266 271 273 277 281 281 279 278 277 275 272 272 273 274 276 277 278 278 278 279 280 282 282 282 279 274 274 282 291 286 281 280 272 269 278 286 295 297 298 303 308 305 292 292 304 303 298 295 299 307 315 322 323 321 318 308 299 296 291 285 284 282 281 280 278 275 271 269 266
272 272 271 272 273 275 275 275 276 277 274 271 267 262 261 263 266 268 269 273 277 279 278 277 278 277 272 271 276 280 280 278 276 276 277 280 282 284 287 287 284 279 277 279 281 282 280 270 263 274 284 286 292 295 295 299 305 300 289 297 307 304 296 292 299 309 319 325 323 320 317 309 301 297 291 286 285 285 286 287 288 284 276 272 269
268 270 271 272 273 272 272 269 268 269 272 272 267 262 261 260 262 263 265 270 274 277 279 278 275 272 272 276 282 285 282 276 275 277 278 281 282 284 288 288 285 281 278 275 274 278 275 261 266 281 284 283 289 293 294 297 300 294 289 301 305 300 294 293 300 310 322 328 324 318 313 305 298 294 290 286 286 288 289 290 292 289 282 277 275
270 273 273 273 272 269 267 269 270 272 272 268 262 262 259 255 259 263 265 270 269 269 273 273 269 269 273 280 283 281 275 270 272 277 279 281 283 285 287 285 282 278 273 273 272 269 262 261 275 283 281 284 289 292 294 296 297 291 289 297 299 296 294 297 304 315 326 329 325 318 310 302 297 293 291 289 289 291 291 290 290 290 284 276 275
272 274 273 271 269 268 269 272 272 270 267 261 257 259 259 256 258 260 261 262 259 262 266 265 267 270 273 277 276 270 266 266 270 275 277 280 282 282 282 281 277 272 267 264 261 257 257 268 278 282 284 289 292 296 296 293 293 289 286 291 294 293 293 297 306 319 327 330 327 316 305 299 295 294 295 295 294 291 288 286 285 287 282 272 270
273 274 273 271 268 270 270 270 269 266 263 260 258 258 259 258 258 259 258 253 251 262 267 264 266 266 265 267 267 265 266 268 271 274 277 279 278 277 280 280 274 270 266 257 252 257 264 272 278 283 289 292 293 295 294 288 286 282 281 287 290 291 292 295 307 320 326 329 325 309 296 292 291 293 296 297 295 289 284 282 282 284 280 270 265
269 272 273 270 269 271 269 268 267 265 262 261 260 259 257 256 257 258 256 251 252 262 266 264 264 264 262 263 263 264 267 271 273 276 277 275 275 277 281 279 273 270 268 260 254 256 264 272 279 284 290 291 289 290 287 274 274 277 278 284 288 291 291 293 308 320 324 327 316 296 287 287 288 289 288 289 288 284 281 280 279 278 278 272 262
260 265 266 266 269 271 269 266 266 265 261 260 262 261 260 259 258 258 255 253 257 263 266 264 264 266 264 263 263 263 266 271 274 275 274 273 275 278 279 274 267 266 264 257 249 248 260 272 279 284 287 287 281 280 274 262 270 278 278 282 286 287 289 294 307 317 321 318 300 287 287 290 291 288 285 284 282 282 282 280 277 273 274 273 263
258 261 261 264 268 269 268 268 268 267 263 262 264 264 264 264 261 260 257 256 260 264 265 263 263 266 264 264 266 265 267 269 272 272 272 274 275 276 276 269 260 256 257 255 251 254 267 277 282 284 285 283 275 270 269 269 274 277 278 283 284 282 286 295 306 314 315 306 291 286 290 296 295 290 287 284 281 281 283 283 279 275 274 270 262
257 260 261 265 267 267 268 269 270 268 266 266 266 266 266 265 264 264 262 262 263 263 263 261 260 262 264 266 267 268 269 270 270 269 269 272 274 273 272 267 258 253 255 258 259 261 269 277 282 281 279 280 274 263 265 270 274 277 279 283 282 280 285 296 305 309 307 299 290 286 290 297 298 293 290 286 282 282 283 283 279 277 275 266 258
255 259 261 265 266 265 265 265 266 266 266 265 265 267 269 266 265 266 264 264 263 262 262 260 258 259 261 263 266 268 269 270 270 266 265 268 271 270 267 265 261 256 256 258 260 262 266 272 276 276 274 275 272 262 261 267 271 275 278 279 279 279 288 298 302 304 302 297 291 286 286 296 301 297 293 288 284 282 282 282 279 278 276 269 260
254 257 260 262 263 264 263 263 264 264 264 263 263 266 266 264 264 265 264 265 265 264 264 262 261 260 260 261 264 267 267 267 266 263 263 266 267 265 263 266 264 261 260 260 261 262 264 267 269 272 271 268 267 262 261 264 266 270 273 275 277 282 292 298 298 297 296 295 291 285 282 291 299 299 295 291 287 283 281 280 281 280 277 273 267
253 256 258 259 261 262 264 265 264 263 262 262 263 264 261 258 260 263 264 266 266 267 266 265 265 264 263 263 264 265 263 261 262 264 265 266 265 261 260 266 269 267 267 266 265 263 263 264 266 268 267 264 264 260 259 261 262 266 269 272 277 285 292 293 291 290 290 292 289 281 277 286 294 296 295 292 288 285 283 281 282 283 279 273 270
252 255 255 257 260 263 264 263 262 262 262 262 261 259 256 255 259 263 265 267 268 268 269 267 266 266 265 264 262 261 260 260 262 266 267 267 266 262 261 267 273 274 275 273 269 265 263 263 263 264 263 260 260 256 256 259 262 265 269 272 278 285 288 287 285 285 287 290 286 279 279 287 293 295 295 293 289 287 285 283 283 284 282 275 272
250 252 253 256 259 261 261 262 263 264 264 263 258 256 256 256 260 264 265 266 267 268 271 271 269 267 264 262 261 261 263 265 266 268 268 267 267 266 265 269 274 278 280 279 276 270 266 262 258 256 256 255 256 254 255 259 262 265 269 275 280 283 283 282 282 284 288 287 281 278 281 289 294 295 296 293 290 289 287 283 283 284 282 277 274
251 251 253 256 257 258 259 262 265 264 264 263 260 260 261 261 261 262 264 266 267 268 272 273 271 267 261 259 259 260 263 266 269 270 269 269 269 270 271 273 276 279 281 281 279 272 265 260 252 248 252 255 256 256 257 260 263 268 275 280 282 282 282 282 283 286 286 283 276 275 278 285 291 293 294 291 288 289 289 285 283 284 282 277 273
252 253 255 257 257 257 258 262 263 262 263 263 263 264 266 265 263 262 265 267 268 269 270 271 270 266 260 256 255 258 262 267 272 274 273 272 273 274 275 276 278 279 280 279 276 269 260 254 248 245 249 253 254 256 258 262 268 275 279 281 282 282 282 283 285 286 284 279 275 275 277 281 287 291 291 290 288 288 289 287 284 282 281 279 276
253 254 255 256 255 255 257 260 260 260 262 262 264 267 267 266 264 265 267 267 267 268 268 267 267 265 260 255 254 259 266 271 275 277 277 275 274 275 276 276 276 278 278 275 271 264 255 250 249 247 247 248 252 258 264 268 273 276 277 278 280 280 282 283 284 284 282 278 277 277 277 279 284 289 290 289 287 286 289 288 284 281 280 279 278
255 255 255 254 254 255 256 257 257 261 263 262 264 267 267 265 266 269 271 267 265 266 266 266 265 263 260 255 255 262 270 273 275 276 275 273 271 272 274 276 276 276 275 271 266 258 251 250 250 249 248 251 256 263 268 270 272 274 275 277 278 279 281 283 283 282 280 279 278 277 278 279 281 285 287 287 286 285 288 288 284 281 281 280 280
256 256 256 255 255 255 255 256 258 262 264 263 265 267 267 267 267 271 272 267 264 264 264 264 262 260 258 256 259 265 269 271 272 272 271 269 269 270 272 273 273 273 272 268 261 252 247 250 252 252 254 258 262 265 267 269 271 273 275 276 278 280 282 282 281 280 278 278 278 278 279 279 279 282 283 283 283 283 286 287 283 281 280 280 280
256 256 255 254 254 255 256 257 258 261 263 263 265 267 269 270 270 271 271 267 263 261 261 260 260 259 257 258 261 264 266 266 266 267 268 270 271 272 272 271 271 272 271 268 261 252 246 248 251 254 258 262 264 264 266 269 272 274 275 277 279 281 283 284 283 281 277 276 276 277 279 279 279 280 280 280 280 282 284 285 282 280 280 279 279
256 255 254 254 255 256 256 257 259 261 261 263 267 269 270 272 272 273 270 265 260 257 256 256 258 260 259 260 262 263 263 262 262 264 268 271 272 272 271 268 269 269 269 267 264 257 250 249 252 255 259 262 264 266 267 269 272 275 277 278 280 283 287 289 287 284 280 276 274 275 277 277 277 278 279 279 279 281 284 284 281 280 280 280 280
Height
10913 10912 10910 10909 10908 10907 10906 10906 10906 10905 10905 10905 10904 10905 10904 10904 10903 10902 10901 10900 10898 10897 10895 10892 10891 10890 10888 10887 10885 10883 10880 10877 10874 10872 10870 10868 10865 10863 10860 10858 10856 10854 10853 10851 10849 10848 10845 10843 10841 10839 10837 10834 10832 10830 10828 10825 10822 10819 10816 10813 10810 10808 10806 10804 10802 10800 10799 10797 10795 10794 10792 10791 10790 10789 10788 10788 10788 10788 10788 10788 10788 10789 10789 10790 10790
10908 10908 10906 10904 10903 10902 10902 10903 10902 10902 10901 10901 10901 10901 10901 10900 10899 10898 10897 10896 10895 10893 10891 10888 10887 10886 10884 10883 10881 10879 10876 10873 10871 10868 10866 10864 10862 10859 10857 10854 10852 10850 10849 10848 10846 10844 10842 10840 10837 10835 10833 10831 10829 10826 10824 10821 10819 10816 10812 10809 10807 10804 10802 10800 10799 10797 10795 10794 10792 10791 10790 10789 10788 10787 10786 10786 10786 10786 10786 10786 10787 10787 10788 10788 10788
10905 10903 10901 10899 10898 10898 10898 10899 10898 10898 10897 10897 10898 10897 10896 10895 10894 10893 10893 10892 10891 10889 10887 10884 10882 10881 10880 10879 10877 10875 10872 10869 10867 10865 10863 10861 10858 10855 10853 10851 10849 10847 10845 10844 10842 10840 10838 10836 10833 10831 10829 10827 10825 10823 10820 10818 10816 10813 10810 10807 10804 10802 10799 10797 10795 10794 10792 10791 10790 10789 10788 10787 10786 10785 10784 10784 10784 10784 10784 10785 10785 10785 10786 10786 10786
10901 10898 10896 10894 10893 10894 10894 10895 10894 10893 10893 10893 10893 10893 10892 10891 10889 10888 10889 10888 10887 10884 10882 10880 10878 10877 10876 10875 10873 10871 10868 10865 10863 10862 10859 10857 10855 10852 10850 10847 10845 10843 10841 10840 10838 10836 10834 10832 10830 10828 10826 10824 10822 10819 10817 10815 10813 10811 10807 10804 10802 10799 10797 10795 10793 10791 10789 10788 10787 10786 10785 10784 10783 10783 10782 10782 10782 10782 10783 10783 10783 10784 10784 10784 10784
10896 10893 10891 10890 10889 10890 10890 10890 10890 10889 10889 10889 10889 10888 10887 10886 10885 10884 10884 10884 10883 10880 10878 10876 10874 10873 10871 10870 10868 10866 10864 10861 10860 10858 10856 10854 10852 10849 10846 10844 10841 10839 10838 10836 10834 10832 10830 10829 10826 10824 10823 10821 10819 10816 10814 10812 10810 10808 10805 10802 10799 10797 10794 10792 10790 10788 10787 10785 10784 10783 10783 10782 10781 10781 10780 10780 10780 10780 10781 10781 10782 10782 10782 10782 10783
10888 10888 10887 10887 10886 10887 10886 10886 10885 10885 10885 10884 10884 10883 10883 10881 10880 10880 10880 10880 10878 10876 10874 10872 10870 10868 10867 10865 10864 10861 10859 10857 10857 10855 10852 10850 10848 10846 10843 10840 10838 10835 10833 10831 10829 10828 10827 10825 10823 10821 10820 10818 10816 10813 10811 10809 10807 10805 10802 10799 10796 10794 10791 10789 10787 10786 10784 10783 10782 10781 10780 10780 10779 10779 10779 10778 10778 10779 10779 10780 10780 10780 10780 10780 10781
10882 10882 10883 10883 10883 10882 10882 10882 10882 10881 10881 10880 10879 10878 10878 10877 10876 10875 10875 10875 10874 10872 10870 10868 10866 10864 10862 10861 10858 10856 10854 10853 10853 10851 10849 10847 10845 10843 10840 10836 10834 10831 10829 10827 10826 10825 10824 10822 10820 10818 10816 10814 10812 10810 10808 10806 10804 10802 10799 10796 10793 10791 10788 10786 10785 10784 10782 10781 10780 10779 10778 10778 10777 10777 10777 10777 10777 10777 10777 10778 10778 10778 10778 10779 10779
10877 10878 10878 10879 10879 10878 10878 10878 10878 10877 10876 10875 10874 10873 10873 10872 10871 10871 10870 10870 10870 10868 10866 10863 10861 10860 10858 10856 10853 10851 10849 10849 10849 10847 10846 10844 10841 10839 10836 10833 10830 10827 10824 10823 10822 10822 10821 10819 10817 10815 10813 10811 10810 10807 10806 10804 10801 10799 10796 10793 10791 10788 10786 10784 10783 10781 10780 10779 10778 10777 10776 10776 10776 10775 10775 10775 10775 10775 10775 10776 10776 10776 10777 10777 10777
10872 10873 10874 10874 10874 10874 10874 10874 10873 10872 10871 10870 10869 10868 10868 10867 10867 10866 10866 10865 10865 10864 10861 10859 10857 10856 10854 10852 10849 10846 10845 10845 10844 10843 10842 10840 10838 10835 10832 10829 10825 10822 10820 10819 10819 10819 10817 10816 10814 10812 10809 10808 10806 10805 10803 10801 10798 10796 10793 10791 10788 10786 10783 10782 10781 10780 10778 10777 10776 10775 10774 10774 10774 10774 10774 10774 10774 10774 10774 10774 10774 10775 10775 10775 10775
10867 10868 10870 10870 10871 10870 10870 10870 10868 10867 10866 10865 10864 10864 10863 10862 10862 10861 10861 10860 10860 10860 10857 10855 10853 10852 10850 10848 10845 10841 10840 10840 10839 10838 10837 10836 10834 10831 10828 10825 10822 10819 10817 10816 10816 10815 10814 10812 10810 10808 10806 10805 10803 10802 10800 10798 10795 10793 10790 10788 10786 10783 10781 10780 10779 10778 10777 10776 10775 10774 10773 10773 10773 10773 10773 10772 10772 10772 10772 10772 10773 10773 10773 10773 10773
10863 10865 10866 10866 10866 10866 10866 10865 10863 10862 10861 10860 10860 10859 10857 10857 10856 10857 10856 10856 10856 10855 10852 10850 10849 10847 10845 10844 10841 10837 10835 10835 10834 10832 10832 10831 10829 10827 10825 10821 10818 10816 10814 10812 10812 10811 10810 10808 10806 10805 10803 10802 10800 10798 10797 10795 10793 10790 10787 10785 10783 10781 10779 10778 10778 10776 10775 10774 10774 10773 10772 10772 10772 10771 10771 10771 10771 10771 10771 10771 10771 10771 10771 10771 10771
10860 10862 10862 10862 10861 10861 10861 10859 10858 10857 10857 10856 10855 10853 10852 10852 10852 10851 10851 10851 10851 10850 10847 10845 10844 10842 10841 10840 10837 10833 10831 10830 10828 10827 10827 10826 10824 10822 10820 10818 10815 10812 10810 10809 10808 10807 10806 10804 10802 10801 10800 10798 10796 10795 10794 10792 10790 10787 10784 10782 10780 10778 10777 10777 10776 10775 10774 10773 10772 10772 10771 10770 10770 10770 10770 10770 10769 10769 10769 10769 10769 10769 10769 10769 10769
10856 10857 10856 10855 10855 10855 10855 10853 10853 10853 10852 10851 10849 10848 10847 10847 10846 10846 10845 10845 10846 10844 10842 10841 10839 10837 10836 10835 10833 10830 10826 10825 10823 10822 10821 10820 10818 10817 10816 10814 10811 10809 10807 10806 10804 10803 10802 10801 10799 10798 10796 10795 10793 10792 10791 10789 10787 10784 10782 10779 10778 10776 10775 10775 10774 10773 10772 10771 10771 10770 10770 10769 10769 10769 10769 10768 10768 10768 10767 10767 10767 10767 10767 10767 10767
10851 10851 10849 10848 10848 10848 10848 10847 10847 10847 10847 10846 10844 10843 10842 10842 10841 10840 10840 10840 10840 10839 10838 10835 10834 10833 10831 10829 10827 10825 10821 10819 10817 10816 10815 10814 10813 10812 10811 10809 10807 10805 10803 10802 10800 10798 10798 10797 10796 10794 10793 10792 10790 10789 10788 10787 10785 10782 10779 10777 10775 10774 10772 10772 10772 10771 10770 10770 10769 10768 10768 10767 10767 10767 10767 10766 10766 10766 10766 10765 10765 10765 10765 10765 10765
10845 10844 10842 10841 10841 10840 10841 10841 10841 10841 10841 10841 10840 10839 10838 10837 10836 10835 10835 10835 10835 10834 10832 10830 10829 10827 10825 10823 10821 10819 10816 10813 10811 10810 10810 10809 10808 10807 10806 10804 10802 10801 10800 10798 10795 10794 10794 10793 10792 10791 10789 10788 10788 10786 10785 10784 10782 10779 10776 10775 10773 10771 10769 10768 10769 10768 10767 10767 10766 10766 10766 10765 10765 10765 10764 10764 10764 10764 10764 10763 10763 10763 10763 10763 10763
10838 10837 10836 10835 10834 10834 10835 10835 10835 10835 10836 10835 10835 10834 10833 10832 10830 10829 10829 10828 10828 10828 10827 10825 10823 10821 10819 10817 10815 10813 10810 10807 10805 10804 10804 10804 10803 10802 10801 10799 10798 10797 10796 10794 10791 10790 10790 10789 10788 10787 10786 10785 10785 10783 10782 10781 10779 10776 10774 10772 10771 10768 10765 10765 10766 10766 10764 10763 10764 10764 10763 10763 10762 10762 10762 10761 10761 10761 10761 10761 10761 10761 10761 10761 10761
10832 10830 10829 10828 10828 10829 10829 10829 10829 10829 10830 10829 10829 10828 10827 10826 10824 10823 10822 10822 10822 10821 10820 10819 10817 10815 10813 10811 10808 10807 10804 10801 10799 10798 10798 10799 10798 10797 10796 10794 10793 10792 10791 10790 10788 10786 10785 10785 10784 10783 10782 10782 10781 10780 10779 10777 10775 10773 10771 10769 10768 10765 10762 10761 10762 10763 10761 10760 10761 10761 10760 10760 10759 10759 10759 10759 10758 10758 10758 10758 10758 10758 10759 10759 10759
10826 10823 10822 10822 10823 10824 10823 10823 10823 10823 10823 10824 10823 10822 10821 10820 10818 10817 10815 10815 10815 10814 10813 10812 10811 10809 10807 10805 10803 10801 10799 10796 10794 10793 10793 10793 10793 10791 10791 10789 10788 10788 10787 10786 10784 10782 10781 10781 10781 10780 10779 10778 10778 10777 10776 10774 10772 10770 10768 10767 10765 10762 10758 10757 10759 10760 10758 10757 10757 10757 10757 10757 10756 10756 10756 10756 10756 10756 10756 10756 10756 10756 10756 10757 10757
10820 10817 10818 10818 10818 10818 10817 10816 10817 10818 10818 10818 10818 10816 10815 10814 10812 10810 10808 10808 10807 10807 10806 10805 10803 10802 10801 10799 10797 10795 10793 10791 10789 10788 10787 10788 10787 10786 10786 10785 10784 10783 10782 10781 10780 10778 10777 10777 10777 10776 10775 10775 10774 10774 10773 10771 10769 10767 10766 10765 10763 10759 10755 10754 10756 10757 10755 10753 10753 10754 10754 10754 10753 10753 10753 10753 10753 10753 10753 10753 10753 10753 10754 10754 10754
10814 10813 10814 10814 10813 10812 10811 10810 10811 10813 10813 10813 10812 10811 10810 10809 10807 10805 10803 10801 10800 10800 10799 10797 10796 10796 10795 10794 10792 10789 10788 10786 10784 10783 10783 10782 10782 10782 10781 10781 10780 10779 10778 10777 10776 10775 10775 10774 10773 10772 10772 10772 10771 10770 10769 10768 10767 10765 10764 10763 10761 10756 10752 10752 10754 10754 10753 10751 10750 10750 10750 10750 10750 10750 10750 10750 10750 10750 10750 10750 10751 10751 10751 10751 10751
10809 10809 10810 10810 10807 10806 10805 10805 10807 10808 10808 10807 10807 10806 10805 10803 10802 10800 10797 10795 10794 10793 10792 10790 10789 10789 10789 10788 10785 10783 10782 10780 10779 10778 10778 10778 10778 10777 10777 10776 10775 10774 10774 10773 10773 10772 10772 10770 10770 10769 10769 10769 10768 10767 10766 10765 10765 10764 10762 10761 10758 10753 10750 10751 10752 10751 10750 10749 10747 10747 10746 10746 10746 10746 10746 10747 10747 10748 10748 10748 10748 10748 10748 10748 10748
10804 10804 10805 10804 10802 10800 10799 10801 10802 10802 10802 10802 10802 10801 10799 10798 10796 10794 10792 10790 10788 10787 10785 10784 10783 10783 10782 10781 10779 10778 10777 10775 10774 10773 10773 10773 10773 10772 10771 10771 10771 10771 10771 10771 10770 10769 10768 10767 10766 10766 10765 10765 10765 10764 10763 10763 10762 10762 10760 10759 10756 10750 10748 10750 10751 10749 10748 10746 10745 10744 10744 10743 10742 10743 10743 10743 10744 10744 10745 10745 10745 10745 10745 10745 10745
10799 10800 10800 10800 10797 10795 10795 10797 10797 10797 10797 10797 10797 10795 10794 10792 10790 10788 10785 10784 10782 10780 10778 10778 10777 10777 10775 10774 10773 10772 10772 10771 10770 10769 10768 10768 10768 10767 10767 10767 10767 10767 10768 10767 10767 10765 10764 10764 10763 10763 10762 10762 10762 10761 10760 10760 10759 10759 10758 10757 10754 10749 10747 10749 10749 10748 10746 10744 10742 10742 10741 10740 10739 10739 10739 10739 10740 10741 10741 10741 10742 10742 10742 10742 10742
10794 10795 10795 10795 10792 10790 10792 10793 10792 10792 10792 10792 10791 10790 10789 10786 10783 10781 10779 10777 10774 10772 10771 10771 10771 10770 10769 10767 10767 10767 10767 10766 10765 10764 10764 10764 10764 10764 10764 10764 10764 10764 10765 10764 10763 10762 10761 10760 10760 10759 10759 10759 10758 10758 10757 10756 10756 10756 10755 10755 10752 10747 10746 10747 10747 10745 10743 10741 10740 10739 10738 10737 10736 10736 10736 10736 10736 10737 10737 10738 10739 10739 10739 10739 10739
10790 10790 10790 10789 10787 10786 10787 10788 10787 10787 10788 10788 10787 10786 10783 10780 10776 10774 10772 10769 10766 10764 10764 10765 10764 10763 10762 10761 10762 10761 10761 10761 10760 10760 10761 10762 10762 10762 10761 10760 10761 10761 10761 10760 10759 10759 10758 10757 10756 10756 10756 10755 10755 10754 10754 10753 10753 10753 10753 10752 10749 10746 10745 10745 10744 10743 10741 10740 10739 10737 10736 10735 10734 10733 10732 10733 10733 10734 10734 10734 10735 10736 10736 10736 10736
10784 10784 10785 10784 10782 10781 10782 10782 10782 10783 10784 10784 10783 10781 10777 10773 10769 10766 10763 10760 10757 10756 10757 10758 10757 10756 10756 10756 10756 10756 10755 10755 10756 10756 10757 10758 10758 10758 10758 10758 10758 10758 10758 10757 10756 10755 10754 10753 10753 10753 10752 10752 10751 10751 10750 10750 10750 10750 10750 10749 10746 10744 10744 10743 10742 10741 10740 10738 10737 10735 10734 10733 10731 10730 10730 10730 10730 10731 10731 10731 10731 10732 10732 10733 10733
10778 10778 10778 10778 10777 10777 10777 10778 10778 10779 10780 10780 10779 10776 10772 10767 10762 10758 10753 10750 10749 10749 10751 10752 10751 10751 10751 10751 10751 10750 10750 10751 10751 10752 10753 10753 10753 10754 10754 10755 10755 10754 10754 10753 10753 10752 10751 10750 10749 10749 10749 10748 10748 10747 10747 10747 10747 10747 10747 10746 10744 10742 10742 10741 10740 10739 10737 10736 10735 10733 10732 10730 10729 10728 10728 10728 10728 10728 10728 10727 10727 10728 10728 10729 10729
10771 10771 10771 10771 10771 10771 10772 10773 10774 10775 10776 10776 10773 10770 10767 10761 10756 10750 10745 10744 10744 10744 10746 10747 10747 10747 10747 10747 10747 10747 10747 10747 10748 10749 10749 10749 10749 10750 10751 10751 10751 10750 10750 10749 10749 10749 10748 10747 10745 10745 10745 10745 10744 10744 10743 10743 10744 10744 10744 10743 10741 10740 10740 10740 10739 10737 10735 10734 10733 10731 10730 10728 10727 10726 10726 10726 10725 10725 10724 10724 10724 10724 10724 10725 10725
10765 10764 10764 10764 10765 10766 10768 10769 10769 10771 10774 10774 10769 10765 10762 10756 10751 10745 10742 10741 10741 10740 10741 10742 10743 10745 10744 10743 10744 10743 10743 10744 10745 10746 10746 10746 10746 10747 10747 10746 10746 10746 10746 10746 10746 10745 10744 10743 10742 10741 10742 10742 10741 10741 10740 10739 10741 10741 10741 10740 10738 10737 10737 10737 10736 10735 10733 10732 10731 10729 10728 10726 10725 10725 10724 10723 10723 10722 10721 10720 10720 10720 10720 10720 10721
10757 10757 10756 10758 10760 10761 10764 10766 10766 10768 10771 10770 10766 10762 10758 10754 10749 10742 10740 10740 10739 10739 10739 10738 10739 10741 10742 10741 10741 10740 10741 10742 10742 10743 10742 10742 10743 10743 10742 10742 10742 10741 10742 10743 10743 10742 10741 10740 10739 10738 10738 10739 10739 10738 10737 10735 10736 10738 10737 10736 10735 10734 10734 10734 10733 10731 10731 10730 10728 10726 10725 10724 10723 10722 10721 10720 10720 10719 10718 10717 10717 10717 10716 10716 10716
10748 10748 10749 10752 10755 10757 10759 10762 10765 10765 10764 10764 10761 10758 10754 10752 10749 10742 10739 10738 10736 10736 10737 10736 10736 10737 10738 10738 10738 10738 10738 10739 10739 10739 10739 10739 10739 10739 10739 10738 10738 10737 10738 10740 10740 10739 10738 10737 10735 10734 10735 10736 10736 10736 10734 10732 10732 10733 10733 10732 10731 10731 10731 10731 10730 10728 10727 10727 10725 10723 10722 10721 10719 10719 10717 10717 10717 10716 10716 10715 10714 10714 10713 10712 10712
10738 10740 10742 10746 10749 10752 10753 10757 10762 10761 10759 10760 10757 10754 10752 10750 10747 10742 10738 10737 10735 10734 10734 10734 10734 10734 10734 10735 10735 10734 10734 10735 10735 10734 10734 10735 10736 10735 10735 10734 10734 10734 10735 10735 10736 10735 10734 10734 10732 10731 10731 10732 10733 10732 10732 10731 10731 10731 10730 10729 10727 10727 10727 10727 10727 10726 10724 10724 10722 10720 10719 10718 10716 10715 10714 10714 10714 10714 10713 10713 10712 10711 10710 10710 10709
10732 10734 10737 10740 10742 10745 10747 10751 10756 10756 10757 10757 10750 10747 10748 10746 10742 10739 10736 10734 10733 10733 10732 10732 10732 10732 10732 10732 10732 10731 10731 10731 10731 10730 10729 10731 10732 10732 10731 10730 10731 10731 10731 10731 10732 10732 10731 10730 10728 10727 10728 10729 10729 10727 10728 10729 10728 10728 10727 10726 10725 10725 10724 10723 10723 10723 10722 10722 10720 10718 10715 10713 10712 10711 10712 10712 10712 10711 10710 10709 10709 10709 10708 10708 10707
10731 10731 10733 10734 10735 10737 10740 10745 10749 10750 10750 10749 10744 10741 10743 10740 10737 10736 10733 10731 10730 10730 10729 10728 10729 10730 10729 10729 10729 10728 10728 10728 10728 10726 10726 10727 10728 10728 10727 10727 10727 10727 10728 10728 10728 10728 10727 10726 10725 10725 10725 10725 10724 10723 10724 10725 10725 10724 10724 10723 10723 10723 10722 10721 10720 10720 10720 10720 10719 10715 10710 10708 10707 10709 10710 10710 10709 10708 10707 10707 10706 10706 10706 10706 10705
10729 10728 10728 10725 10727 10730 10733 10737 10739 10741 10741 10741 10740 10738 10737 10734 10733 10732 10730 10728 10726 10727 10726 10725 10726 10726 10726 10726 10727 10725 10725 10725 10725 10724 10724 10725 10724 10724 10725 10724 10724 10724 10724 10725 10725 10725 10724 10723 10722 10722 10722 10720 10718 10718 10719 10721 10721 10720 10720 10720 10720 10720 10720 10719 10717 10717 10718 10719 10718 10713 10707 10704 10705 10707 10708 10708 10707 10706 10705 10705 10704 10704 10704 10704 10703
10725 10723 10721 10717 10719 10723 10726 10729 10731 10733 10734 10734 10733 10731 10730 10729 10727 10726 10726 10724 10722 10722 10722 10721 10721 10722 10722 10723 10723 10723 10721 10720 10721 10722 10722 10722 10721 10721 10722 10722 10722 10721 10721 10721 10722 10721 10721 10721 10720 10718 10718 10717 10714 10713 10714 10716 10717 10716 10716 10716 10716 10716 10716 10716 10715 10715 10715 10717 10715 10710 10704 10703 10705 10706 10706 10705 10704 10703 10703 10702 10702 10702 10701 10701 10701
10719 10717 10715 10711 10714 10717 10719 10723 10726 10727 10727 10727 10726 10725 10724 10722 10721 10720 10720 10720 10718 10718 10718 10717 10717 10717 10718 10718 10719 10720 10718 10716 10716 10718 10719 10719 10718 10718 10719 10718 10719 10719 10719 10718 10718 10719 10719 10719 10718 10715 10715 10714 10712 10710 10709 10710 10712 10713 10713 10713 10713 10713 10712 10712 10713 10713 10714 10716 10712 10705 10702 10703 10704 10703 10702 10702 10702 10701 10701 10700 10700 10699 10699 10699 10699
10712 10710 10709 10706 10707 10710 10714 10719 10722 10722 10720 10720 10719 10718 10717 10715 10715 10715 10715 10715 10714 10714 10714 10713 10712 10712 10713 10714 10715 10715 10715 10713 10713 10715 10715 10715 10714 10715 10715 10715 10716 10717 10717 10717 10716 10716 10716 10716 10715 10713 10712 10712 10711 10708 10704 10704 10707 10708 10709 10710 10711 10710 10709 10709 10710 10711 10712 10713 10709 10703 10702 10702 10702 10700 10699 10698 10698 10698 10698 10697 10697 10697 10696 10696 10696
10705 10702 10701 10701 10704 10707 10711 10714 10716 10716 10713 10712 10712 10711 10710 10709 10709 10709 10709 10709 10708 10709 10709 10709 10709 10709 10709 10710 10710 10711 10710 10710 10711 10712 10712 10711 10711 10712 10712 10711 10712 10713 10714 10714 10713 10713 10712 10712 10711 10710 10710 10709 10709 10707 10702 10700 10702 10704 10705 10706 10707 10707 10707 10706 10706 10707 10708 10708 10706 10703 10701 10700 10699 10698 10697 10695 10695 10695 10694 10694 10693 10693 10693 10693 10693
10697 10695 10697 10699 10702 10705 10707 10708 10710 10709 10707 10706 10706 10705 10704 10702 10702 10702 10702 10701 10701 10702 10703 10704 10704 10705 10705 10706 10707 10706 10706 10706 10707 10709 10709 10709 10708 10709 10709 10707 10707 10708 10709 10709 10709 10709 10708 10708 10707 10707 10707 10707 10706 10705 10701 10700 10700 10701 10701 10702 10703 10704 10704 10704 10703 10703 10703 10704 10702 10701 10699 10697 10696 10695 10694 10693 10692 10691 10691 10690 10689 10689 10689 10689 10690
10691 10692 10695 10697 10698 10699 10700 10702 10703 10702 10702 10702 10702 10701 10700 10698 10696 10696 10696 10695 10696 10696 10697 10698 10699 10700 10701 10703 10703 10703 10701 10700 10702 10705 10706 10706 10705 10706 10706 10704 10703 10703 10705 10705 10705 10705 10704 10704 10704 10703 10703 10704 10704 10702 10700 10699 10699 10699 10699 10700 10700 10700 10701 10701 10701 10700 10700 10700 10699 10698 10697 10695 10694 10692 10691 10690 10689 10688 10687 10686 10686 10685 10685 10685 10685
10688 10689 10691 10693 10693 10694 10694 10696 10696 10696 10698 10698 10698 10697 10696 10694 10693 10692 10691 10691 10691 10692 10693 10694 10695 10696 10697 10698 10699 10698 10697 10696 10698 10700 10701 10702 10702 10702 10702 10701 10699 10699 10701 10702 10701 10700 10700 10699 10699 10698 10698 10699 10700 10699 10698 10697 10697 10697 10697 10697 10697 10696 10697 10698 10699 10698 10698 10697 10696 10695 10694 10693 10691 10690 10688 10687 10685 10684 10682 10681 10681 10681 10681 10681 10681
10683 10684 10686 10689 10689 10690 10690 10690 10690 10691 10692 10693 10692 10691 10691 10691 10690 10689 10688 10688 10688 10689 10690 10690 10691 10692 10693 10694 10694 10693 10692 10692 10694 10695 10697 10697 10697 10698 10698 10697 10695 10694 10695 10697 10697 10696 10695 10695 10694 10693 10693 10694 10695 10695 10694 10693 10693 10693 10693 10693 10692 10692 10693 10694 10695 10695 10695 10693 10692 10691 10690 10688 10687 10686 10685 10683 10682 10680 10679 10677 10677 10677 10677 10677 10677
10677 10678 10682 10685 10686 10686 10686 10686 10686 10686 10686 10686 10685 10685 10686 10685 10685 10684 10684 10684 10685 10685 10686 10686 10687 10687 10688 10689 10688 10687 10687 10687 10688 10690 10692 10692 10692 10693 10693 10693 10692 10690 10689 10691 10692 10691 10690 10690 10690 10688 10688 10689 10690 10690 10690 10690 10689 10689 10689 10689 10688 10688 10689 10689 10690 10690 10690 10690 10688 10687 10685 10683 10682 10682 10680 10678 10677 10676 10675 10674 10673 10673 10673 10673 10673
10672 10674 10678 10682 10683 10682 10682 10682 10682 10682 10681 10680 10680 10680 10680 10680 10679 10679 10679 10680 10681 10682 10683 10683 10683 10684 10684 10684 10684 10683 10682 10682 10683 10685 10687 10688 10687 10687 10688 10688 10687 10685 10684 10685 10686 10686 10685 10685 10685 10685 10684 10685 10686 10686 10686 10686 10685 10685 10684 10684 10683 10684 10684 10685 10685 10684 10684 10685 10685 10684 10682 10679 10679 10678 10676 10674 10673 10672 10671 10670 10669 10669 10669 10669 10669
10667 10671 10674 10677 10678 10677 10677 10676 10676 10677 10677 10676 10676 10675 10675 10675 10674 10674 10675 10675 10676 10678 10679 10679 10680 10680 10680 10680 10680 10679 10679 10678 10679 10680 10682 10684 10683 10682 10683 10683 10683 10682 10680 10680 10680 10681 10680 10680 10681 10681 10681 10682 10683 10682 10682 10682 10681 10680 10679 10679 10679 10679 10679 10680 10680 10679 10679 10680 10680 10680 10678 10676 10675 10674 10672 10671 10669 10668 10666 10666 10665 10664 10664 10664 10664
10663 10666 10668 10670 10671 10671 10671 10671 10671 10671 10672 10672 10671 10671 10671 10671 10670 10670 10671 10671 10672 10673 10674 10675 10675 10675 10676 10676 10676 10676 10676 10675 10675 10675 10677 10679 10679 10678 10678 10678 10679 10679 10677 10676 10676 10676 10676 10676 10676 10677 10678 10679 10680 10679 10678 10678 10678 10676 10675 10675 10674 10674 10675 10676 10675 10674 10674 10675 10675 10675 10675 10673 10672 10671 10668 10666 10665 10663 10663 10662 10661 10660 10660 10660 10659
10658 10660 10661 10664 10665 10665 10665 10666 10667 10668 10668 10668 10667 10667 10667 10667 10667 10667 10668 10668 10668 10668 10669 10670 10671 10671 10672 10673 10674 10673 10673 10672 10672 10672 10673 10675 10676 10676 10674 10674 10675 10675 10674 10673 10672 10672 10673 10673 10673 10673 10674 10675 10676 10676 10675 10674 10674 10673 10672 10671 10670 10670 10671 10671 10670 10670 10670 10670 10670 10670 10670 10669 10668 10667 10665 10662 10660 10659 10659 10659 10657 10656 10655 10655 10655
10652 10654 10656 10658 10659 10659 10660 10662 10664 10665 10665 10664 10663 10663 10662 10662 10663 10663 10663 10663 10664 10664 10664 10666 10667 10667 10669 10670 10670 10671 10670 10669 10669 10669 10669 10671 10673 10673 10672 10670 10670 10671 10671 10671 10670 10669 10670 10670 10670 10670 10670 10671 10672 10673 10672 10671 10671 10670 10668 10667 10666 10666 10666 10666 10665 10665 10666 10665 10664 10664 10664 10664 10663 10663 10661 10659 10656 10654 10655 10655 10653 10651 10651 10651 10651
10647 10649 10650 10652 10653 10654 10655 10657 10660 10661 10661 10659 10659 10659 10658 10658 10659 10658 10659 10659 10660 10660 10661 10662 10663 10664 10665 10666 10667 10667 10668 10667 10666 10666 10666 10666 10668 10669 10669 10668 10666 10666 10666 10667 10667 10667 10667 10667 10667 10668 10667 10667 10667 10669 10669 10668 10667 10666 10664 10663 10662 10662 10662 10661 10659 10659 10660 10660 10659 10659 10659 10659 10658 10657 10656 10655 10652 10650 10650 10650 10649 10647 10647 10647 10647
10642 10643 10644 10646 10648 10649 10651 10653 10655 10656 10656 10655 10655 10655 10655 10655 10655 10654 10654 10655 10656 10656 10657 10658 10659 10660 10661 10662 10663 10664 10664 10664 10664 10663 10663 10662 10663 10664 10665 10665 10664 10662 10662 10663 10663 10664 10665 10664 10664 10665 10665 10664 10664 10664 10664 10664 10663 10662 10660 10659 10658 10658 10658 10656 10654 10653 10654 10654 10654 10654 10655 10654 10652 10651 10651 10650 10648 10647 10646 10646 10645 10643 10642 10642 10642